Location: Newark
(43.6583°N, 1.6617°E)
Time: 02:10:40
(UTC+00:00)

Vanguard 2 Rocket - Pass Details

Date: 24 August 2019
Orbit: 554 x 3327 km, 32.9° (Epoch: 16 September)

Event Time Altitude Azimuth Distance (km) Brightness Sun altitude
Exits shadow 00:00:59 13° 115° (ESE) 4,396 10.1 -35.1°
Drops below altitude 10° 00:03:54 10° 103° (ESE) 4,912 10.5 -35.0°
Sets 00:11:37 0° 84° (E) 6,559 11.4 -35.0°
